Time,TemperatureF,DewpointF,PressureIn,WindDirection,WindDirectionDegrees,WindSpeedMPH,WindSpeedGustMPH,Humidity,HourlyPrecipIn,Conditions,Clouds,dailyrainin,SolarRadiationWatts/m^2,SoftwareType,DateUTC
2013-02-04 00:01:00,34.0,26.0,-100.00,NNW,336,3.0,14.0,71,0.00,,,0.00,0.000000,,2013-02-04 08:01:00,
2013-02-04 00:11:00,34.0,26.0,-100.00,NNW,336,3.0,14.0,71,0.00,,,0.00,0.000000,,2013-02-04 08:11:00,
2013-02-04 00:21:00,34.0,26.0,-100.00,NNW,336,3.0,14.0,71,0.00,,,0.00,0.000000,,2013-02-04 08:21:00,
2013-02-04 00:31:00,34.0,26.0,-100.00,NNW,336,3.0,14.0,71,0.00,,,0.00,0.000000,,2013-02-04 08:31:00,
2013-02-04 00:52:00,33.0,24.0,-100.00,NNW,336,3.0,9.0,70,0.00,,,0.00,0.000000,,2013-02-04 08:52:00,
2013-02-04 01:02:00,33.0,24.0,-100.00,NNW,336,3.0,9.0,70,0.00,,,0.00,0.000000,,2013-02-04 09:02:00,
2013-02-04 01:11:00,33.0,24.0,-100.00,NNW,336,3.0,9.0,70,0.00,,,0.00,0.000000,,2013-02-04 09:11:00,
2013-02-04 01:21:00,33.0,24.0,-100.00,NNW,336,3.0,9.0,70,0.00,,,0.00,0.000000,,2013-02-04 09:21:00,
2013-02-04 01:31:00,33.0,24.0,-100.00,NNW,336,3.0,9.0,70,0.00,,,0.00,0.000000,,2013-02-04 09:31:00,
2013-02-04 01:52:00,33.0,25.0,-100.00,NNW,336,2.0,10.0,71,0.00,,,0.00,0.000000,,2013-02-04 09:52:00,
2013-02-04 02:01:00,33.0,25.0,-100.00,NNW,336,2.0,10.0,71,0.00,,,0.00,0.000000,,2013-02-04 10:01:00,
2013-02-04 02:11:00,33.0,25.0,-100.00,NNW,336,2.0,10.0,71,0.00,,,0.00,0.000000,,2013-02-04 10:11:00,
2013-02-04 02:21:00,33.0,25.0,-100.00,NNW,336,2.0,10.0,71,0.00,,,0.00,0.000000,,2013-02-04 10:21:00,
2013-02-04 02:32:00,33.0,25.0,-100.00,NNW,336,2.0,10.0,71,0.00,,,0.00,0.000000,,2013-02-04 10:32:00,
2013-02-04 02:52:00,32.0,25.0,-100.00,NNW,336,2.0,6.0,75,0.00,,,0.00,0.000000,,2013-02-04 10:52:00,
2013-02-04 03:01:00,32.0,25.0,-100.00,NNW,336,2.0,6.0,75,0.00,,,0.00,0.000000,,2013-02-04 11:01:00,
2013-02-04 03:11:00,32.0,25.0,-100.00,NNW,336,2.0,6.0,75,0.00,,,0.00,0.000000,,2013-02-04 11:11:00,
2013-02-04 03:22:00,32.0,25.0,-100.00,NNW,336,2.0,6.0,75,0.00,,,0.00,0.000000,,2013-02-04 11:22:00,
2013-02-04 03:32:00,32.0,25.0,-100.00,NNW,336,2.0,6.0,75,0.00,,,0.00,0.000000,,2013-02-04 11:32:00,
2013-02-04 03:52:00,32.0,25.0,-100.00,NNW,336,1.0,6.0,76,0.00,,,0.00,0.000000,,2013-02-04 11:52:00,
2013-02-04 04:02:00,32.0,25.0,-100.00,NNW,336,1.0,6.0,76,0.00,,,0.00,0.000000,,2013-02-04 12:02:00,
2013-02-04 04:12:00,32.0,25.0,-100.00,NNW,336,1.0,6.0,76,0.00,,,0.00,0.000000,,2013-02-04 12:12:00,
2013-02-04 04:21:00,32.0,25.0,-100.00,NNW,336,1.0,6.0,76,0.00,,,0.00,0.000000,,2013-02-04 12:21:00,
2013-02-04 04:32:00,32.0,25.0,-100.00,NNW,336,1.0,6.0,76,0.00,,,0.00,0.000000,,2013-02-04 12:32:00,
2013-02-04 04:53:00,32.0,24.0,-100.00,NNW,336,2.0,6.0,73,0.00,,,0.00,0.000000,,2013-02-04 12:53:00,
2013-02-04 05:02:00,32.0,24.0,-100.00,NNW,336,2.0,6.0,73,0.00,,,0.00,0.000000,,2013-02-04 13:02:00,
2013-02-04 05:11:00,32.0,24.0,-100.00,NNW,336,2.0,6.0,73,0.00,,,0.00,0.000000,,2013-02-04 13:11:00,
2013-02-04 05:21:00,32.0,24.0,-100.00,NNW,336,2.0,6.0,73,0.00,,,0.00,0.000000,,2013-02-04 13:21:00,
2013-02-04 05:32:00,32.0,24.0,-100.00,NNW,336,2.0,6.0,73,0.00,,,0.00,0.000000,,2013-02-04 13:32:00,
2013-02-04 05:52:00,32.0,23.0,-100.00,NNW,336,2.0,6.0,70,0.00,,,0.00,0.000000,,2013-02-04 13:52:00,
2013-02-04 06:02:00,32.0,23.0,-100.00,NNW,336,2.0,6.0,70,0.00,,,0.00,0.000000,,2013-02-04 14:02:00,
2013-02-04 06:11:00,32.0,23.0,-100.00,NNW,336,2.0,6.0,70,0.00,,,0.00,0.000000,,2013-02-04 14:11:00,
2013-02-04 06:21:00,32.0,23.0,-100.00,NNW,336,2.0,6.0,70,0.00,,,0.00,0.000000,,2013-02-04 14:21:00,
2013-02-04 06:32:00,32.0,23.0,-100.00,NNW,336,2.0,6.0,70,0.00,,,0.00,0.000000,,2013-02-04 14:32:00,
2013-02-04 06:52:00,30.0,24.0,-100.00,NNW,336,0.0,7.0,77,0.00,,,0.00,0.000000,,2013-02-04 14:52:00,
2013-02-04 07:03:00,30.0,24.0,-100.00,NNW,336,0.0,7.0,77,0.00,,,0.00,0.000000,,2013-02-04 15:03:00,
2013-02-04 07:12:00,30.0,24.0,-100.00,NNW,336,0.0,7.0,77,0.00,,,0.00,0.000000,,2013-02-04 15:12:00,
2013-02-04 07:23:00,30.0,24.0,-100.00,NNW,336,0.0,7.0,77,0.00,,,0.00,0.000000,,2013-02-04 15:23:00,
2013-02-04 07:33:00,30.0,24.0,-100.00,NNW,336,0.0,7.0,77,0.00,,,0.00,0.000000,,2013-02-04 15:33:00,
2013-02-04 07:52:00,28.0,24.0,-100.00,NNW,336,1.0,4.0,83,0.00,,,0.00,1.000000,,2013-02-04 15:52:00,
2013-02-04 08:02:00,28.0,24.0,-100.00,NNW,336,1.0,4.0,83,0.00,,,0.00,1.000000,,2013-02-04 16:02:00,
2013-02-04 08:11:00,28.0,24.0,-100.00,NNW,336,1.0,4.0,83,0.00,,,0.00,1.000000,,2013-02-04 16:11:00,
2013-02-04 08:22:00,28.0,24.0,-100.00,NNW,336,1.0,4.0,83,0.00,,,0.00,1.000000,,2013-02-04 16:22:00,
2013-02-04 08:32:00,28.0,24.0,-100.00,NNW,336,1.0,4.0,83,0.00,,,0.00,1.000000,,2013-02-04 16:32:00,
2013-02-04 09:52:00,34.0,24.0,-100.00,NNW,336,0.0,4.0,66,-99.99,,,0.00,29.000000,,2013-02-04 17:52:00,
2013-02-04 10:03:00,34.0,24.0,-100.00,NNW,336,0.0,4.0,66,-99.99,,,0.00,29.000000,,2013-02-04 18:03:00,
2013-02-04 10:11:00,34.0,24.0,-100.00,NNW,336,0.0,4.0,66,-99.99,,,0.00,29.000000,,2013-02-04 18:11:00,
2013-02-04 10:21:00,34.0,24.0,-100.00,NNW,336,0.0,4.0,66,-99.99,,,0.00,29.000000,,2013-02-04 18:21:00,
2013-02-04 10:31:00,34.0,24.0,-100.00,NNW,336,0.0,4.0,66,-99.99,,,0.00,29.000000,,2013-02-04 18:31:00,
2013-02-04 10:52:00,39.0,25.0,-100.00,NNW,336,1.0,7.0,56,0.00,,,0.00,114.000000,,2013-02-04 18:52:00,
2013-02-04 11:02:00,39.0,25.0,-100.00,NNW,336,1.0,7.0,56,0.00,,,0.00,114.000000,,2013-02-04 19:02:00,
2013-02-04 11:11:00,39.0,25.0,-100.00,NNW,336,1.0,7.0,56,0.00,,,0.00,114.000000,,2013-02-04 19:11:00,
2013-02-04 11:22:00,39.0,25.0,-100.00,NNW,336,1.0,7.0,56,0.00,,,0.00,114.000000,,2013-02-04 19:22:00,
2013-02-04 11:31:00,39.0,25.0,-100.00,NNW,336,1.0,7.0,56,0.00,,,0.00,114.000000,,2013-02-04 19:31:00,
2013-02-04 11:52:00,43.0,27.0,-100.00,NNW,336,1.0,4.0,53,0.00,,,0.00,218.000000,,2013-02-04 19:52:00,
2013-02-04 12:02:00,43.0,27.0,-100.00,NNW,336,1.0,4.0,53,0.00,,,0.00,218.000000,,2013-02-04 20:02:00,
2013-02-04 12:12:00,43.0,27.0,-100.00,NNW,336,1.0,4.0,53,0.00,,,0.00,218.000000,,2013-02-04 20:12:00,
2013-02-04 12:21:00,43.0,27.0,-100.00,NNW,336,1.0,4.0,53,0.00,,,0.00,218.000000,,2013-02-04 20:21:00,
2013-02-04 12:31:00,43.0,27.0,-100.00,NNW,336,1.0,4.0,53,0.00,,,0.00,218.000000,,2013-02-04 20:31:00,
2013-02-04 12:52:00,43.0,27.0,-100.00,NNW,336,2.0,5.0,53,0.00,,,0.00,299.000000,,2013-02-04 20:52:00,
2013-02-04 13:02:00,43.0,27.0,-100.00,NNW,336,2.0,5.0,53,0.00,,,0.00,299.000000,,2013-02-04 21:02:00,
2013-02-04 13:11:00,43.0,27.0,-100.00,NNW,336,2.0,5.0,53,0.00,,,0.00,299.000000,,2013-02-04 21:11:00,
2013-02-04 13:22:00,43.0,27.0,-100.00,NNW,336,2.0,5.0,53,0.00,,,0.00,299.000000,,2013-02-04 21:22:00,
2013-02-04 13:31:00,43.0,27.0,-100.00,NNW,336,2.0,5.0,53,0.00,,,0.00,299.000000,,2013-02-04 21:31:00,
2013-02-04 13:52:00,44.0,27.0,-100.00,NNW,336,1.0,6.0,50,0.00,,,0.00,283.000000,,2013-02-04 21:52:00,
2013-02-04 14:02:00,44.0,27.0,-100.00,NNW,336,1.0,6.0,50,0.00,,,0.00,283.000000,,2013-02-04 22:02:00,
2013-02-04 14:12:00,44.0,27.0,-100.00,NNW,336,1.0,6.0,50,0.00,,,0.00,283.000000,,2013-02-04 22:12:00,
2013-02-04 14:21:00,44.0,27.0,-100.00,NNW,336,1.0,6.0,50,0.00,,,0.00,283.000000,,2013-02-04 22:21:00,
2013-02-04 14:32:00,44.0,27.0,-100.00,NNW,336,1.0,6.0,50,0.00,,,0.00,283.000000,,2013-02-04 22:32:00,
2013-02-04 14:52:00,42.0,27.0,-100.00,NNW,336,2.0,7.0,54,0.00,,,0.00,207.000000,,2013-02-04 22:52:00,
2013-02-04 15:01:00,42.0,27.0,-100.00,NNW,336,2.0,7.0,54,0.00,,,0.00,207.000000,,2013-02-04 23:01:00,
2013-02-04 15:11:00,42.0,27.0,-100.00,NNW,336,2.0,7.0,54,0.00,,,0.00,207.000000,,2013-02-04 23:11:00,
2013-02-04 15:21:00,42.0,27.0,-100.00,NNW,336,2.0,7.0,54,0.00,,,0.00,207.000000,,2013-02-04 23:21:00,
2013-02-04 15:32:00,42.0,27.0,-100.00,NNW,336,2.0,7.0,54,0.00,,,0.00,207.000000,,2013-02-04 23:32:00,
2013-02-04 15:52:00,42.0,27.0,-100.00,NNW,336,1.0,5.0,55,0.00,,,0.00,151.000000,,2013-02-04 23:52:00,
2013-02-04 16:01:00,42.0,27.0,-100.00,NNW,336,1.0,5.0,55,0.00,,,0.00,151.000000,,2013-02-05 00:01:00,
2013-02-04 16:11:00,42.0,27.0,-100.00,NNW,336,1.0,5.0,55,0.00,,,0.00,151.000000,,2013-02-05 00:11:00,
2013-02-04 16:21:00,42.0,27.0,-100.00,NNW,336,1.0,5.0,55,0.00,,,0.00,151.000000,,2013-02-05 00:21:00,
2013-02-04 16:31:00,42.0,27.0,-100.00,NNW,336,1.0,5.0,55,0.00,,,0.00,151.000000,,2013-02-05 00:31:00,
2013-02-04 16:52:00,37.0,26.0,-100.00,NNW,336,1.0,4.0,65,0.00,,,-99.99,69.000000,,2013-02-05 00:52:00,
2013-02-04 17:01:00,37.0,26.0,-100.00,NNW,336,1.0,4.0,65,0.00,,,-99.99,69.000000,,2013-02-05 01:01:00,
2013-02-04 17:11:00,37.0,26.0,-100.00,NNW,336,1.0,4.0,65,0.00,,,-99.99,69.000000,,2013-02-05 01:11:00,
2013-02-04 17:21:00,37.0,26.0,-100.00,NNW,336,1.0,4.0,65,0.00,,,-99.99,69.000000,,2013-02-05 01:21:00,
2013-02-04 17:32:00,37.0,26.0,-100.00,NNW,336,1.0,4.0,65,0.00,,,-99.99,69.000000,,2013-02-05 01:32:00,
2013-02-04 17:52:00,36.0,25.0,-100.00,NNW,336,2.0,5.0,65,0.00,,,0.00,12.000000,,2013-02-05 01:52:00,
2013-02-04 18:01:00,36.0,25.0,-100.00,NNW,336,2.0,5.0,65,0.00,,,0.00,12.000000,,2013-02-05 02:01:00,
2013-02-04 18:11:00,36.0,25.0,-100.00,NNW,336,2.0,5.0,65,0.00,,,0.00,12.000000,,2013-02-05 02:11:00,
2013-02-04 18:21:00,36.0,25.0,-100.00,NNW,336,2.0,5.0,65,0.00,,,0.00,12.000000,,2013-02-05 02:21:00,
2013-02-04 18:31:00,36.0,25.0,-100.00,NNW,336,2.0,5.0,65,0.00,,,0.00,12.000000,,2013-02-05 02:31:00,
2013-02-04 18:52:00,35.0,25.0,-100.00,NNW,336,1.0,6.0,67,0.00,,,0.00,0.000000,,2013-02-05 02:52:00,
2013-02-04 19:01:00,35.0,25.0,-100.00,NNW,336,1.0,6.0,67,0.00,,,0.00,0.000000,,2013-02-05 03:01:00,
2013-02-04 19:11:00,35.0,25.0,-100.00,NNW,336,1.0,6.0,67,0.00,,,0.00,0.000000,,2013-02-05 03:11:00,
2013-02-04 19:21:00,35.0,25.0,-100.00,NNW,336,1.0,6.0,67,0.00,,,0.00,0.000000,,2013-02-05 03:21:00,
2013-02-04 19:31:00,35.0,25.0,-100.00,NNW,336,1.0,6.0,67,0.00,,,0.00,0.000000,,2013-02-05 03:31:00,
2013-02-04 19:52:00,36.0,26.0,-100.00,NNW,336,2.0,7.0,67,0.00,,,0.00,0.000000,,2013-02-05 03:52:00,
2013-02-04 20:01:00,36.0,26.0,-100.00,NNW,336,2.0,7.0,67,0.00,,,0.00,0.000000,,2013-02-05 04:01:00,
2013-02-04 20:11:00,36.0,26.0,-100.00,NNW,336,2.0,7.0,67,0.00,,,0.00,0.000000,,2013-02-05 04:11:00,
2013-02-04 20:21:00,36.0,26.0,-100.00,NNW,336,2.0,7.0,67,0.00,,,0.00,0.000000,,2013-02-05 04:21:00,
2013-02-04 20:31:00,36.0,26.0,-100.00,NNW,336,2.0,7.0,67,0.00,,,0.00,0.000000,,2013-02-05 04:31:00,
2013-02-04 20:52:00,37.0,26.0,-100.00,NNW,337,6.0,11.0,65,0.00,,,0.00,0.000000,,2013-02-05 04:52:00,
2013-02-04 21:02:00,37.0,26.0,-100.00,NNW,337,6.0,11.0,65,0.00,,,0.00,0.000000,,2013-02-05 05:02:00,
2013-02-04 21:11:00,37.0,26.0,-100.00,NNW,337,6.0,11.0,65,0.00,,,0.00,0.000000,,2013-02-05 05:11:00,
2013-02-04 21:21:00,37.0,26.0,-100.00,NNW,337,6.0,11.0,65,0.00,,,0.00,0.000000,,2013-02-05 05:21:00,
2013-02-04 21:31:00,37.0,26.0,-100.00,NNW,337,6.0,11.0,65,0.00,,,0.00,0.000000,,2013-02-05 05:31:00,
2013-02-04 21:52:00,35.0,29.0,-100.00,NNW,337,2.0,13.0,79,0.00,,,0.00,0.000000,,2013-02-05 05:52:00,
2013-02-04 22:01:00,35.0,29.0,-100.00,NNW,337,2.0,13.0,79,0.00,,,0.00,0.000000,,2013-02-05 06:01:00,
2013-02-04 22:11:00,35.0,29.0,-100.00,NNW,337,2.0,13.0,79,0.00,,,0.00,0.000000,,2013-02-05 06:11:00,
2013-02-04 22:21:00,35.0,29.0,-100.00,NNW,337,2.0,13.0,79,0.00,,,0.00,0.000000,,2013-02-05 06:21:00,
2013-02-04 22:31:00,35.0,29.0,-100.00,NNW,337,2.0,13.0,79,0.00,,,0.00,0.000000,,2013-02-05 06:31:00,
2013-02-04 22:52:00,33.0,31.0,-100.00,NNW,336,0.0,6.0,91,0.00,,,0.00,0.000000,,2013-02-05 06:52:00,
2013-02-04 23:01:00,33.0,31.0,-100.00,NNW,336,0.0,6.0,91,0.00,,,0.00,0.000000,,2013-02-05 07:01:00,
2013-02-04 23:11:00,33.0,31.0,-100.00,NNW,336,0.0,6.0,91,0.00,,,0.00,0.000000,,2013-02-05 07:11:00,
2013-02-04 23:22:00,33.0,31.0,-100.00,NNW,336,0.0,6.0,91,0.00,,,0.00,0.000000,,2013-02-05 07:22:00,
2013-02-04 23:31:00,33.0,31.0,-100.00,NNW,336,0.0,6.0,91,0.00,,,0.00,0.000000,,2013-02-05 07:31:00,
2013-02-04 23:52:00,31.0,29.0,-100.00,NNW,336,1.0,2.0,93,0.00,,,0.00,0.000000,,2013-02-05 07:52:00,